Year,Month,Day,Hour,Minute,Value (Times are PST for temperature in C)
2017,07,18,00,00,14.80
2017,07,18,00,01,14.80
2017,07,18,00,02,14.80
2017,07,18,00,03,14.80
2017,07,18,00,04,14.70
2017,07,18,00,05,14.70
2017,07,18,00,06,14.70
2017,07,18,00,07,14.70
2017,07,18,00,08,14.70
2017,07,18,00,09,14.70
2017,07,18,00,10,14.60
2017,07,18,00,11,14.60
2017,07,18,00,12,14.60
2017,07,18,00,13,14.50
2017,07,18,00,14,14.50
2017,07,18,00,15,14.50
2017,07,18,00,16,14.40
2017,07,18,00,17,14.40
2017,07,18,00,18,14.40
2017,07,18,00,19,14.40
2017,07,18,00,20,14.30
2017,07,18,00,21,14.30
2017,07,18,00,22,14.30
2017,07,18,00,23,14.30
2017,07,18,00,24,14.30
2017,07,18,00,25,14.30
2017,07,18,00,26,14.30
2017,07,18,00,27,14.30
2017,07,18,00,28,14.30
2017,07,18,00,29,14.30
2017,07,18,00,30,14.30
2017,07,18,00,31,14.30
2017,07,18,00,32,14.30
2017,07,18,00,33,14.30
2017,07,18,00,34,14.30
2017,07,18,00,35,14.30
2017,07,18,00,36,14.30
2017,07,18,00,37,14.30
2017,07,18,00,38,14.30
2017,07,18,00,39,14.30
2017,07,18,00,40,14.30
2017,07,18,00,41,14.30
2017,07,18,00,42,14.30
2017,07,18,00,43,14.30
2017,07,18,00,44,14.30
2017,07,18,00,45,14.20
2017,07,18,00,46,14.20
2017,07,18,00,47,14.20
2017,07,18,00,48,14.10
2017,07,18,00,49,14.10
2017,07,18,00,50,14.10
2017,07,18,00,51,14.00
2017,07,18,00,52,14.00
2017,07,18,00,53,14.00
2017,07,18,00,54,13.90
2017,07,18,00,55,13.90
2017,07,18,00,56,13.90
2017,07,18,00,57,13.80
2017,07,18,00,58,13.80
2017,07,18,00,59,13.80
2017,07,18,01,00,13.80
2017,07,18,01,01,13.70
2017,07,18,01,02,13.70
2017,07,18,01,03,13.70
2017,07,18,01,04,13.60
2017,07,18,01,05,13.60
2017,07,18,01,06,13.60
2017,07,18,01,07,13.60
2017,07,18,01,08,13.60
2017,07,18,01,09,13.50
2017,07,18,01,10,13.50
2017,07,18,01,11,13.50
2017,07,18,01,12,13.50
2017,07,18,01,13,13.40
2017,07,18,01,14,13.40
2017,07,18,01,15,13.40
2017,07,18,01,16,13.40
2017,07,18,01,17,13.30
2017,07,18,01,18,13.30
2017,07,18,01,19,13.30
2017,07,18,01,20,13.30
2017,07,18,01,21,13.30
2017,07,18,01,22,13.20
2017,07,18,01,23,13.20
2017,07,18,01,24,13.20
2017,07,18,01,25,13.20
2017,07,18,01,26,13.20
2017,07,18,01,27,13.20
2017,07,18,01,28,13.20
2017,07,18,01,29,13.10
2017,07,18,01,30,13.10
2017,07,18,01,31,13.10
2017,07,18,01,32,13.10
2017,07,18,01,33,13.10
2017,07,18,01,34,13.00
2017,07,18,01,35,13.00
2017,07,18,01,36,13.00
2017,07,18,01,37,12.90
2017,07,18,01,38,12.90
2017,07,18,01,39,12.90
2017,07,18,01,40,12.90
2017,07,18,01,41,12.90
2017,07,18,01,42,12.90
2017,07,18,01,43,12.90
2017,07,18,01,44,12.90
2017,07,18,01,45,12.90
2017,07,18,01,46,12.80
2017,07,18,01,47,12.80
2017,07,18,01,48,12.80
2017,07,18,01,49,12.80
2017,07,18,01,50,12.80
2017,07,18,01,51,12.70
2017,07,18,01,52,12.70
2017,07,18,01,53,12.70
2017,07,18,01,54,12.60
2017,07,18,01,55,12.60
2017,07,18,01,56,12.60
2017,07,18,01,57,12.50
2017,07,18,01,58,12.50
2017,07,18,01,59,12.50
2017,07,18,02,00,12.50
2017,07,18,02,01,12.50
2017,07,18,02,02,12.50
2017,07,18,02,03,12.50
2017,07,18,02,04,12.50
2017,07,18,02,05,12.60
2017,07,18,02,06,12.70
2017,07,18,02,07,12.80
2017,07,18,02,08,12.90
2017,07,18,02,09,13.00
2017,07,18,02,10,13.00
2017,07,18,02,11,13.10
2017,07,18,02,12,13.20
2017,07,18,02,13,13.40
2017,07,18,02,14,13.50
2017,07,18,02,15,13.60
2017,07,18,02,16,13.80
2017,07,18,02,17,13.80
2017,07,18,02,18,13.90
2017,07,18,02,19,14.00
2017,07,18,02,20,14.10
2017,07,18,02,21,14.10
2017,07,18,02,22,14.10
2017,07,18,02,23,14.10
2017,07,18,02,24,14.10
2017,07,18,02,25,14.20
2017,07,18,02,26,14.20
2017,07,18,02,27,14.20
2017,07,18,02,28,14.30
2017,07,18,02,29,14.30
2017,07,18,02,30,14.30
2017,07,18,02,31,14.40
2017,07,18,02,32,14.50
2017,07,18,02,33,14.50
2017,07,18,02,34,14.60
2017,07,18,02,35,14.60
2017,07,18,02,36,14.70
2017,07,18,02,37,14.80
2017,07,18,02,38,14.90
2017,07,18,02,39,15.00
2017,07,18,02,40,15.00
2017,07,18,02,41,15.00
2017,07,18,02,42,15.10
2017,07,18,02,43,15.20
2017,07,18,02,44,15.30
2017,07,18,02,45,15.30
2017,07,18,02,46,15.30
2017,07,18,02,47,15.40
2017,07,18,02,48,15.40
2017,07,18,02,49,15.40
2017,07,18,02,50,15.40
2017,07,18,02,51,15.40
2017,07,18,02,52,15.30
2017,07,18,02,53,15.30
2017,07,18,02,54,15.30
2017,07,18,02,55,15.30
2017,07,18,02,56,15.20
2017,07,18,02,57,15.20
2017,07,18,02,58,15.00
2017,07,18,02,59,15.00
2017,07,18,03,00,15.00
2017,07,18,03,01,15.00
2017,07,18,03,02,15.00
2017,07,18,03,03,14.90
2017,07,18,03,04,14.80
2017,07,18,03,05,14.80
2017,07,18,03,06,14.70
2017,07,18,03,07,14.70
2017,07,18,03,08,14.60
2017,07,18,03,09,14.60
2017,07,18,03,10,14.50
2017,07,18,03,11,14.50
2017,07,18,03,12,14.40
2017,07,18,03,13,14.40
2017,07,18,03,14,14.30
2017,07,18,03,15,14.30
2017,07,18,03,16,14.20
2017,07,18,03,17,14.20
2017,07,18,03,18,14.20
2017,07,18,03,19,14.10
2017,07,18,03,20,14.10
2017,07,18,03,21,14.10
2017,07,18,03,22,14.10
2017,07,18,03,23,14.10
2017,07,18,03,24,14.10
2017,07,18,03,25,14.00
2017,07,18,03,26,14.00
2017,07,18,03,27,14.00
2017,07,18,03,28,13.90
2017,07,18,03,29,13.90
2017,07,18,03,30,13.90
2017,07,18,03,31,13.80
2017,07,18,03,32,13.80
2017,07,18,03,33,13.80
2017,07,18,03,34,13.80
2017,07,18,03,35,13.70
2017,07,18,03,36,13.70
2017,07,18,03,37,13.70
2017,07,18,03,38,13.70
2017,07,18,03,39,13.70
2017,07,18,03,40,13.70
2017,07,18,03,41,13.70
2017,07,18,03,42,13.60
2017,07,18,03,43,13.60
2017,07,18,03,44,13.60
2017,07,18,03,45,13.60
2017,07,18,03,46,13.60
2017,07,18,03,47,13.60
2017,07,18,03,48,13.50
2017,07,18,03,49,13.50
2017,07,18,03,50,13.50
2017,07,18,03,51,13.50
2017,07,18,03,52,13.50
2017,07,18,03,53,13.50
2017,07,18,03,54,13.60
2017,07,18,03,55,13.60
2017,07,18,03,56,13.60
2017,07,18,03,57,13.50
2017,07,18,03,58,13.50
2017,07,18,03,59,13.50
2017,07,18,04,00,13.40
2017,07,18,04,01,13.40
2017,07,18,04,02,13.40
2017,07,18,04,03,13.40
2017,07,18,04,04,13.30
2017,07,18,04,05,13.30
2017,07,18,04,06,13.30
2017,07,18,04,07,13.30
2017,07,18,04,08,13.20
2017,07,18,04,09,13.20
2017,07,18,04,10,13.20
2017,07,18,04,11,13.20
2017,07,18,04,12,13.20
2017,07,18,04,13,13.20
2017,07,18,04,14,13.20
2017,07,18,04,15,13.20
2017,07,18,04,16,13.30
2017,07,18,04,17,13.30
2017,07,18,04,18,13.30
2017,07,18,04,19,13.40
2017,07,18,04,20,13.50
2017,07,18,04,21,13.60
2017,07,18,04,22,13.70
2017,07,18,04,23,13.80
2017,07,18,04,24,13.90
2017,07,18,04,25,14.00
2017,07,18,04,26,14.10
2017,07,18,04,27,14.10
2017,07,18,04,28,14.20
2017,07,18,04,29,14.30
2017,07,18,04,30,14.30
2017,07,18,04,31,14.30
2017,07,18,04,32,14.20
2017,07,18,04,33,14.20
2017,07,18,04,34,14.20
2017,07,18,04,35,14.20
2017,07,18,04,36,14.20
2017,07,18,04,37,14.20
2017,07,18,04,38,14.20
2017,07,18,04,39,14.10
2017,07,18,04,40,14.00
2017,07,18,04,41,13.90
2017,07,18,04,42,13.90
2017,07,18,04,43,13.80
2017,07,18,04,44,13.70
2017,07,18,04,45,13.70
2017,07,18,04,46,13.60
2017,07,18,04,47,13.60
2017,07,18,04,48,13.50
2017,07,18,04,49,13.50
2017,07,18,04,50,13.40
2017,07,18,04,51,13.40
2017,07,18,04,52,13.30
2017,07,18,04,53,13.30
2017,07,18,04,54,13.30
2017,07,18,04,55,13.30
2017,07,18,04,56,13.30
2017,07,18,04,57,13.40
2017,07,18,04,58,13.40
2017,07,18,04,59,13.40
2017,07,18,05,00,13.50
2017,07,18,05,01,13.50
2017,07,18,05,02,13.60
2017,07,18,05,03,13.50
2017,07,18,05,04,13.50
2017,07,18,05,05,13.50
2017,07,18,05,06,13.40
2017,07,18,05,07,13.40
2017,07,18,05,08,13.40
2017,07,18,05,09,13.40
2017,07,18,05,10,13.40
2017,07,18,05,11,13.50
2017,07,18,05,12,13.50
2017,07,18,05,13,13.50
2017,07,18,05,14,13.50
2017,07,18,05,15,13.50
2017,07,18,05,16,13.60
2017,07,18,05,17,13.60
2017,07,18,05,18,13.70
2017,07,18,05,19,13.70
2017,07,18,05,20,13.70
2017,07,18,05,21,13.70
2017,07,18,05,22,13.70
2017,07,18,05,23,13.70
2017,07,18,05,24,13.80
2017,07,18,05,25,13.80
2017,07,18,05,26,13.70
2017,07,18,05,27,13.70
2017,07,18,05,28,13.70
2017,07,18,05,29,13.70
2017,07,18,05,30,13.60
2017,07,18,05,31,13.60
2017,07,18,05,32,13.60
2017,07,18,05,33,13.50
2017,07,18,05,34,13.50
2017,07,18,05,35,13.50
2017,07,18,05,36,13.40
2017,07,18,05,37,13.40
2017,07,18,05,38,13.40
2017,07,18,05,39,13.40
2017,07,18,05,40,13.40
2017,07,18,05,41,13.40
2017,07,18,05,42,13.40
2017,07,18,05,43,13.40
2017,07,18,05,44,13.30
2017,07,18,05,45,13.30
2017,07,18,05,46,13.20
2017,07,18,05,47,13.20
2017,07,18,05,48,13.10
2017,07,18,05,49,13.10
2017,07,18,05,50,13.00
2017,07,18,05,51,12.90
2017,07,18,05,52,12.90
2017,07,18,05,53,12.90
2017,07,18,05,54,12.80
2017,07,18,05,55,12.80
2017,07,18,05,56,12.80
2017,07,18,05,57,12.70
2017,07,18,05,58,12.70
2017,07,18,05,59,12.70
2017,07,18,06,00,12.70
2017,07,18,06,01,12.70
2017,07,18,06,02,12.70
2017,07,18,06,03,12.70
2017,07,18,06,04,12.80
2017,07,18,06,05,12.80
2017,07,18,06,06,12.80
2017,07,18,06,07,12.90
2017,07,18,06,08,13.00
2017,07,18,06,09,13.10
2017,07,18,06,10,13.20
2017,07,18,06,11,13.40
2017,07,18,06,12,13.50
2017,07,18,06,13,13.50
2017,07,18,06,14,13.70
2017,07,18,06,15,13.80
2017,07,18,06,16,13.90
2017,07,18,06,17,14.00
2017,07,18,06,18,14.10
2017,07,18,06,19,14.20
2017,07,18,06,20,14.30
2017,07,18,06,21,14.40
2017,07,18,06,22,14.50
2017,07,18,06,23,14.50
2017,07,18,06,24,14.60
2017,07,18,06,25,14.60
2017,07,18,06,26,14.70
2017,07,18,06,27,14.80
2017,07,18,06,28,14.90
2017,07,18,06,29,14.90
2017,07,18,06,30,15.00
2017,07,18,06,31,15.00
2017,07,18,06,32,15.00
2017,07,18,06,33,15.00
2017,07,18,06,34,15.00
2017,07,18,06,35,15.00
2017,07,18,06,36,15.00
2017,07,18,06,37,15.10
2017,07,18,06,38,15.20
2017,07,18,06,39,15.30
2017,07,18,06,40,15.30
2017,07,18,06,41,15.40
2017,07,18,06,42,15.40
2017,07,18,06,43,15.50
2017,07,18,06,44,15.60
2017,07,18,06,45,15.60
2017,07,18,06,46,15.70
2017,07,18,06,47,15.70
2017,07,18,06,48,15.70
2017,07,18,06,49,15.80
2017,07,18,06,50,15.80
2017,07,18,06,51,15.90
2017,07,18,06,52,15.90
2017,07,18,06,53,16.00
2017,07,18,06,54,16.00
2017,07,18,06,55,16.00
2017,07,18,06,56,16.10
2017,07,18,06,57,16.20
2017,07,18,06,58,16.20
2017,07,18,06,59,16.20
2017,07,18,07,00,16.30
2017,07,18,07,01,16.30
2017,07,18,07,02,16.40
2017,07,18,07,03,16.40
2017,07,18,07,04,16.40
2017,07,18,07,05,16.40
2017,07,18,07,06,16.50
2017,07,18,07,07,16.50
2017,07,18,07,08,16.60
2017,07,18,07,09,16.60
2017,07,18,07,10,16.70
2017,07,18,07,11,16.70
2017,07,18,07,12,16.70
2017,07,18,07,13,16.80
2017,07,18,07,14,16.80
2017,07,18,07,15,16.90
2017,07,18,07,16,16.90
2017,07,18,07,17,16.90
2017,07,18,07,18,17.00
2017,07,18,07,19,17.10
2017,07,18,07,20,17.10
2017,07,18,07,21,17.10
2017,07,18,07,22,17.20
2017,07,18,07,23,17.20
2017,07,18,07,24,17.20
2017,07,18,07,25,17.30
2017,07,18,07,26,17.30
2017,07,18,07,27,17.40
2017,07,18,07,28,17.40
2017,07,18,07,29,17.40
2017,07,18,07,30,17.50
2017,07,18,07,31,17.50
2017,07,18,07,32,17.60
2017,07,18,07,33,17.60
2017,07,18,07,34,17.60
2017,07,18,07,35,17.70
2017,07,18,07,36,17.70
2017,07,18,07,37,17.70
2017,07,18,07,38,17.70
2017,07,18,07,39,17.80
2017,07,18,07,40,17.80
2017,07,18,07,41,17.80
2017,07,18,07,42,17.80
2017,07,18,07,43,17.80
2017,07,18,07,44,17.80
2017,07,18,07,45,17.80
2017,07,18,07,46,17.90
2017,07,18,07,47,17.90
2017,07,18,07,48,17.90
2017,07,18,07,49,17.90
2017,07,18,07,50,17.90
2017,07,18,07,51,17.90
2017,07,18,07,52,17.90
2017,07,18,07,53,17.90
2017,07,18,07,54,17.90
2017,07,18,07,55,17.90
2017,07,18,07,56,17.90
2017,07,18,07,57,18.00
2017,07,18,07,58,18.00
2017,07,18,07,59,18.00
2017,07,18,08,00,18.10
2017,07,18,08,01,18.10
2017,07,18,08,02,18.10
2017,07,18,08,03,18.20
2017,07,18,08,04,18.20
2017,07,18,08,05,18.20
2017,07,18,08,06,18.30
2017,07,18,08,07,18.30
2017,07,18,08,08,18.30
2017,07,18,08,09,18.30
2017,07,18,08,10,18.20
2017,07,18,08,11,18.20
2017,07,18,08,12,18.10
2017,07,18,08,13,18.10
2017,07,18,08,14,18.10
2017,07,18,08,15,18.10
2017,07,18,08,16,18.00
2017,07,18,08,17,18.00
2017,07,18,08,18,18.00
2017,07,18,08,19,18.10
2017,07,18,08,20,18.10
2017,07,18,08,21,18.10
2017,07,18,08,22,18.10
2017,07,18,08,23,18.20
2017,07,18,08,24,18.20
2017,07,18,08,25,18.20
2017,07,18,08,26,18.30
2017,07,18,08,27,18.30
2017,07,18,08,28,18.40
2017,07,18,08,29,18.40
2017,07,18,08,30,18.50
2017,07,18,08,31,18.50
2017,07,18,08,32,18.60
2017,07,18,08,33,18.60
2017,07,18,08,34,18.60
2017,07,18,08,35,18.70
2017,07,18,08,36,18.80
2017,07,18,08,37,18.80
2017,07,18,08,38,18.80
2017,07,18,08,39,18.80
2017,07,18,08,40,18.90
2017,07,18,08,41,18.90
2017,07,18,08,42,19.00
2017,07,18,08,43,19.00
2017,07,18,08,44,19.10
2017,07,18,08,45,19.10
2017,07,18,08,46,19.20
2017,07,18,08,47,19.20
2017,07,18,08,48,19.20
2017,07,18,08,49,19.20
2017,07,18,08,50,19.20
2017,07,18,08,51,19.20
2017,07,18,08,52,19.20
2017,07,18,08,53,19.20
2017,07,18,08,54,19.20
2017,07,18,08,55,19.20
2017,07,18,08,56,19.20
2017,07,18,08,57,19.20
2017,07,18,08,58,19.20
2017,07,18,08,59,19.20
2017,07,18,09,00,19.20
2017,07,18,09,01,19.20
2017,07,18,09,02,19.20
2017,07,18,09,03,19.20
2017,07,18,09,04,19.20
2017,07,18,09,05,19.20
2017,07,18,09,06,19.20
2017,07,18,09,07,19.20
2017,07,18,09,08,19.30
2017,07,18,09,09,19.30
2017,07,18,09,10,19.30
2017,07,18,09,11,19.30
2017,07,18,09,12,19.30
2017,07,18,09,13,19.20
2017,07,18,09,14,19.20
2017,07,18,09,15,19.20
2017,07,18,09,16,19.20
2017,07,18,09,17,19.20
2017,07,18,09,18,19.20
2017,07,18,09,19,19.20
2017,07,18,09,20,19.20
2017,07,18,09,21,19.20
2017,07,18,09,22,19.20
2017,07,18,09,23,19.10
2017,07,18,09,24,19.10
2017,07,18,09,25,19.10
2017,07,18,09,26,19.00
2017,07,18,09,27,19.00
2017,07,18,09,28,18.90
2017,07,18,09,29,18.90
2017,07,18,09,30,18.90
2017,07,18,09,31,18.80
2017,07,18,09,32,18.80
2017,07,18,09,33,18.80
2017,07,18,09,34,18.80
2017,07,18,09,35,18.80
2017,07,18,09,36,18.80
2017,07,18,09,37,18.90
2017,07,18,09,38,18.90
2017,07,18,09,39,18.80
2017,07,18,09,40,18.80
2017,07,18,09,41,18.80
2017,07,18,09,42,18.80
2017,07,18,09,43,18.70
2017,07,18,09,44,18.70
2017,07,18,09,45,18.70
2017,07,18,09,46,18.70
2017,07,18,09,47,18.80
2017,07,18,09,48,18.80
2017,07,18,09,49,18.80
2017,07,18,09,50,18.90
2017,07,18,09,51,18.90
2017,07,18,09,52,18.90
2017,07,18,09,53,18.90
2017,07,18,09,54,18.90
2017,07,18,09,55,18.90
2017,07,18,09,56,18.90
2017,07,18,09,57,18.90
2017,07,18,09,58,18.90
2017,07,18,09,59,18.90
2017,07,18,10,00,18.90
2017,07,18,10,01,18.90
2017,07,18,10,02,18.90
2017,07,18,10,03,18.90
2017,07,18,10,04,18.90
2017,07,18,10,05,18.90
2017,07,18,10,06,18.90
2017,07,18,10,07,18.90
2017,07,18,10,08,18.90
2017,07,18,10,09,19.00
2017,07,18,10,10,19.00
2017,07,18,10,11,19.00
2017,07,18,10,12,18.90
2017,07,18,10,13,19.00
2017,07,18,10,14,19.00
2017,07,18,10,15,19.00
2017,07,18,10,16,19.10
2017,07,18,10,17,19.10
2017,07,18,10,18,19.10
2017,07,18,10,19,19.20
2017,07,18,10,20,19.20
2017,07,18,10,21,19.20
2017,07,18,10,22,19.10
2017,07,18,10,23,19.10
2017,07,18,10,24,19.10
2017,07,18,10,25,19.10
2017,07,18,10,26,19.20
2017,07,18,10,27,19.10
2017,07,18,10,28,19.20
2017,07,18,10,29,19.20
2017,07,18,10,30,19.20
2017,07,18,10,31,19.20
2017,07,18,10,32,19.30
2017,07,18,10,33,19.30
2017,07,18,10,34,19.30
2017,07,18,10,35,19.30
2017,07,18,10,36,19.40
2017,07,18,10,37,19.40
2017,07,18,10,38,19.40
2017,07,18,10,39,19.50
2017,07,18,10,40,19.50
2017,07,18,10,41,19.40
2017,07,18,10,42,19.40
2017,07,18,10,43,19.40
2017,07,18,10,44,19.30
2017,07,18,10,45,19.30
2017,07,18,10,46,19.30
2017,07,18,10,47,19.30
2017,07,18,10,48,19.20
2017,07,18,10,49,19.30
2017,07,18,10,50,19.30
2017,07,18,10,51,19.30
2017,07,18,10,52,19.30
2017,07,18,10,53,19.30
2017,07,18,10,54,19.20
2017,07,18,10,55,19.20
2017,07,18,10,56,19.20
2017,07,18,10,57,19.20
2017,07,18,10,58,19.20
2017,07,18,10,59,19.20
2017,07,18,11,00,19.30
2017,07,18,11,01,19.30
2017,07,18,11,02,19.30
2017,07,18,11,03,19.30
2017,07,18,11,04,19.30
2017,07,18,11,05,19.30
2017,07,18,11,06,19.30
2017,07,18,11,07,19.30
2017,07,18,11,08,19.30
2017,07,18,11,09,19.30
2017,07,18,11,10,19.30
2017,07,18,11,11,19.40
2017,07,18,11,12,19.40
2017,07,18,11,13,19.40
2017,07,18,11,14,19.50
2017,07,18,11,15,19.50
2017,07,18,11,16,19.60
2017,07,18,11,17,19.60
2017,07,18,11,18,19.70
2017,07,18,11,19,19.70
2017,07,18,11,20,19.70
2017,07,18,11,21,19.70
2017,07,18,11,22,19.70
2017,07,18,11,23,19.70
2017,07,18,11,24,19.70
2017,07,18,11,25,19.60
2017,07,18,11,26,19.60
2017,07,18,11,27,19.60
2017,07,18,11,28,19.70
2017,07,18,11,29,19.70
2017,07,18,11,30,19.70
2017,07,18,11,31,19.70
2017,07,18,11,32,19.70
2017,07,18,11,33,19.70
2017,07,18,11,34,19.70
2017,07,18,11,35,19.70
2017,07,18,11,36,19.70
2017,07,18,11,37,19.70
2017,07,18,11,38,19.70
2017,07,18,11,39,19.70
2017,07,18,11,40,19.70
2017,07,18,11,41,19.70
2017,07,18,11,42,19.80
2017,07,18,11,43,19.80
2017,07,18,11,44,19.90
2017,07,18,11,45,19.90
2017,07,18,11,46,20.00
2017,07,18,11,47,20.10
2017,07,18,11,48,20.10
2017,07,18,11,49,20.10
2017,07,18,11,50,20.10
2017,07,18,11,51,20.20
2017,07,18,11,52,20.20
2017,07,18,11,53,20.20
2017,07,18,11,54,20.30
2017,07,18,11,55,20.30
2017,07,18,11,56,20.30
2017,07,18,11,57,20.40
2017,07,18,11,58,20.40
2017,07,18,11,59,20.40
2017,07,18,12,00,20.40
2017,07,18,12,01,20.40
2017,07,18,12,02,20.40
2017,07,18,12,03,20.40
2017,07,18,12,04,20.40
2017,07,18,12,05,20.40
2017,07,18,12,06,20.40
2017,07,18,12,07,20.40
2017,07,18,12,08,20.40
2017,07,18,12,09,20.40
2017,07,18,12,10,20.50
2017,07,18,12,11,20.50
2017,07,18,12,12,20.60
2017,07,18,12,13,20.60
2017,07,18,12,14,20.70
2017,07,18,12,15,20.80
2017,07,18,12,16,20.80
2017,07,18,12,17,20.80
2017,07,18,12,18,20.90
2017,07,18,12,19,20.90
2017,07,18,12,20,20.90
2017,07,18,12,21,20.90
2017,07,18,12,22,20.80
2017,07,18,12,23,20.80
2017,07,18,12,24,20.80
2017,07,18,12,25,20.80
2017,07,18,12,26,20.80
2017,07,18,12,27,20.90
2017,07,18,12,28,20.90
2017,07,18,12,29,20.90
2017,07,18,12,30,21.00
2017,07,18,12,31,21.00
2017,07,18,12,32,21.10
2017,07,18,12,33,21.10
2017,07,18,12,34,21.10
2017,07,18,12,35,21.10
2017,07,18,12,36,21.20
2017,07,18,12,37,21.20
2017,07,18,12,38,21.20
2017,07,18,12,39,21.20
2017,07,18,12,40,21.30
2017,07,18,12,41,21.30
2017,07,18,12,42,21.40
2017,07,18,12,43,21.40
2017,07,18,12,44,21.50
2017,07,18,12,45,21.50
2017,07,18,12,46,21.60
2017,07,18,12,47,21.50
2017,07,18,12,48,21.50
2017,07,18,12,49,21.50
2017,07,18,12,50,21.50
2017,07,18,12,51,21.40
2017,07,18,12,52,21.40
2017,07,18,12,53,21.40
2017,07,18,12,54,21.40
2017,07,18,12,55,21.40
2017,07,18,12,56,21.40
2017,07,18,12,57,21.30
2017,07,18,12,58,21.30
2017,07,18,12,59,21.30
2017,07,18,13,00,21.30
2017,07,18,13,01,21.30
2017,07,18,13,02,21.30
2017,07,18,13,03,21.30
2017,07,18,13,04,21.30
2017,07,18,13,05,21.30
2017,07,18,13,06,21.20
2017,07,18,13,07,21.20
2017,07,18,13,08,21.20
2017,07,18,13,09,21.20
2017,07,18,13,10,21.20
2017,07,18,13,11,21.20
2017,07,18,13,12,21.20
2017,07,18,13,13,21.30
2017,07,18,13,14,21.30
2017,07,18,13,15,21.40
2017,07,18,13,16,21.50
2017,07,18,13,17,21.50
2017,07,18,13,18,21.60
2017,07,18,13,19,21.60
2017,07,18,13,20,21.60
2017,07,18,13,21,21.70
2017,07,18,13,22,21.70
2017,07,18,13,23,21.80
2017,07,18,13,24,21.80
2017,07,18,13,25,21.80
2017,07,18,13,26,21.90
2017,07,18,13,27,21.90
2017,07,18,13,28,21.90
2017,07,18,13,29,21.90
2017,07,18,13,30,21.90
2017,07,18,13,31,21.80
2017,07,18,13,32,21.80
2017,07,18,13,33,21.80
2017,07,18,13,34,21.80
2017,07,18,13,35,21.90
2017,07,18,13,36,21.90
2017,07,18,13,37,21.90
2017,07,18,13,38,22.00
2017,07,18,13,39,22.10
2017,07,18,13,40,22.20
2017,07,18,13,41,22.20
2017,07,18,13,42,22.30
2017,07,18,13,43,22.30
2017,07,18,13,44,22.30
2017,07,18,13,45,22.30
2017,07,18,13,46,22.30
2017,07,18,13,47,22.30
2017,07,18,13,48,22.40
2017,07,18,13,49,22.40
2017,07,18,13,50,22.40
2017,07,18,13,51,22.40
2017,07,18,13,52,22.40
2017,07,18,13,53,22.30
2017,07,18,13,54,22.30
2017,07,18,13,55,22.30
2017,07,18,13,56,22.30
2017,07,18,13,57,22.30
2017,07,18,13,58,22.30
2017,07,18,13,59,22.30
2017,07,18,14,00,22.30
2017,07,18,14,01,22.40
2017,07,18,14,02,22.40
2017,07,18,14,03,22.40
2017,07,18,14,04,22.50
2017,07,18,14,05,22.50
2017,07,18,14,06,22.50
2017,07,18,14,07,22.50
2017,07,18,14,08,22.50
2017,07,18,14,09,22.50
2017,07,18,14,10,22.60
2017,07,18,14,11,22.60
2017,07,18,14,12,22.70
2017,07,18,14,13,22.70
2017,07,18,14,14,22.70
2017,07,18,14,15,22.70
2017,07,18,14,16,22.70
2017,07,18,14,17,22.70
2017,07,18,14,18,22.70
2017,07,18,14,19,22.70
2017,07,18,14,20,22.80
2017,07,18,14,21,22.80
2017,07,18,14,22,22.90
2017,07,18,14,23,23.00
2017,07,18,14,24,23.10
2017,07,18,14,25,23.20
2017,07,18,14,26,23.20
2017,07,18,14,27,23.20
2017,07,18,14,28,23.10
2017,07,18,14,29,23.10
2017,07,18,14,30,23.10
2017,07,18,14,31,23.20
2017,07,18,14,32,23.30
2017,07,18,14,33,23.40
2017,07,18,14,34,23.50
2017,07,18,14,35,23.70
2017,07,18,14,36,23.80
2017,07,18,14,37,23.90
2017,07,18,14,38,24.10
2017,07,18,14,39,24.20
2017,07,18,14,40,24.30
2017,07,18,14,41,24.40
2017,07,18,14,42,24.40
2017,07,18,14,43,24.40
2017,07,18,14,44,24.30
2017,07,18,14,45,24.20
2017,07,18,14,46,24.10
2017,07,18,14,47,24.10
2017,07,18,14,48,24.10
2017,07,18,14,49,24.10
2017,07,18,14,50,24.10
2017,07,18,14,51,24.20
2017,07,18,14,52,24.30
2017,07,18,14,53,24.40
2017,07,18,14,54,24.50
2017,07,18,14,55,24.70
2017,07,18,14,56,24.80
2017,07,18,14,57,24.90
2017,07,18,14,58,25.00
2017,07,18,14,59,25.10
2017,07,18,15,00,25.30
2017,07,18,15,01,25.30
2017,07,18,15,02,25.40
2017,07,18,15,03,25.50
2017,07,18,15,04,25.60
2017,07,18,15,05,25.70
2017,07,18,15,06,25.80
2017,07,18,15,07,25.90
2017,07,18,15,08,25.90
2017,07,18,15,09,25.90
2017,07,18,15,10,25.90
2017,07,18,15,11,25.90
2017,07,18,15,12,25.80
2017,07,18,15,13,25.80
2017,07,18,15,14,25.90
2017,07,18,15,15,25.90
2017,07,18,15,16,25.90
2017,07,18,15,17,25.90
2017,07,18,15,18,26.00
2017,07,18,15,19,26.10
2017,07,18,15,20,26.10
2017,07,18,15,21,26.20
2017,07,18,15,22,26.20
2017,07,18,15,23,26.30
2017,07,18,15,24,26.30
2017,07,18,15,25,26.40
2017,07,18,15,26,26.40
2017,07,18,15,27,26.50
2017,07,18,15,28,26.40
2017,07,18,15,29,26.40
2017,07,18,15,30,26.40
2017,07,18,15,31,26.40
2017,07,18,15,32,26.40
2017,07,18,15,33,26.40
2017,07,18,15,34,26.40
2017,07,18,15,35,26.40
2017,07,18,15,36,26.40
2017,07,18,15,37,26.50
2017,07,18,15,38,26.60
2017,07,18,15,39,26.70
2017,07,18,15,40,26.80
2017,07,18,15,41,26.80
2017,07,18,15,42,26.90
2017,07,18,15,43,26.90
2017,07,18,15,44,26.90
2017,07,18,15,45,27.00
2017,07,18,15,46,27.00
2017,07,18,15,47,26.90
2017,07,18,15,48,26.90
2017,07,18,15,49,26.80
2017,07,18,15,50,26.80
2017,07,18,15,51,26.80
2017,07,18,15,52,26.80
2017,07,18,15,53,26.90
2017,07,18,15,54,26.80
2017,07,18,15,55,26.80
2017,07,18,15,56,26.90
2017,07,18,15,57,26.90
2017,07,18,15,58,27.00
2017,07,18,15,59,26.90
2017,07,18,16,00,26.90
2017,07,18,16,01,26.90
2017,07,18,16,02,26.80
2017,07,18,16,03,26.70
2017,07,18,16,04,26.70
2017,07,18,16,05,26.60
2017,07,18,16,06,26.60
2017,07,18,16,07,26.50
2017,07,18,16,08,26.50
2017,07,18,16,09,26.50
2017,07,18,16,10,26.40
2017,07,18,16,11,26.40
2017,07,18,16,12,26.30
2017,07,18,16,13,26.30
2017,07,18,16,14,26.30
2017,07,18,16,15,26.20
2017,07,18,16,16,26.20
2017,07,18,16,17,26.20
2017,07,18,16,18,26.10
2017,07,18,16,19,26.10
2017,07,18,16,20,25.90
2017,07,18,16,21,25.90
2017,07,18,16,22,25.90
2017,07,18,16,23,25.80
2017,07,18,16,24,25.80
2017,07,18,16,25,25.80
2017,07,18,16,26,25.70
2017,07,18,16,27,25.70
2017,07,18,16,28,25.60
2017,07,18,16,29,25.50
2017,07,18,16,30,25.40
2017,07,18,16,31,25.30
2017,07,18,16,32,25.30
2017,07,18,16,33,25.20
2017,07,18,16,34,25.20
2017,07,18,16,35,25.20
2017,07,18,16,36,25.20
2017,07,18,16,37,25.20
2017,07,18,16,38,25.20
2017,07,18,16,39,25.30
2017,07,18,16,40,25.30
2017,07,18,16,41,25.40
2017,07,18,16,42,25.50
2017,07,18,16,43,25.70
2017,07,18,16,44,25.80
2017,07,18,16,45,25.90
2017,07,18,16,46,25.90
2017,07,18,16,47,26.00
2017,07,18,16,48,26.10
2017,07,18,16,49,26.10
2017,07,18,16,50,26.20
2017,07,18,16,51,26.20
2017,07,18,16,52,26.20
2017,07,18,16,53,26.20
2017,07,18,16,54,26.20
2017,07,18,16,55,26.30
2017,07,18,16,56,26.40
2017,07,18,16,57,26.40
2017,07,18,16,58,26.40
2017,07,18,16,59,26.40
2017,07,18,17,00,26.30
2017,07,18,17,01,26.30
2017,07,18,17,02,26.20
2017,07,18,17,03,26.30
2017,07,18,17,04,26.30
2017,07,18,17,05,26.30
2017,07,18,17,06,26.30
2017,07,18,17,07,26.30
2017,07,18,17,08,26.30
2017,07,18,17,09,26.20
2017,07,18,17,10,26.10
2017,07,18,17,11,26.10
2017,07,18,17,12,26.10
2017,07,18,17,13,26.10
2017,07,18,17,14,26.20
2017,07,18,17,15,26.20
2017,07,18,17,16,26.30
2017,07,18,17,17,26.30
2017,07,18,17,18,26.30
2017,07,18,17,19,26.30